Regional Weather Roundup
Issued by NWS

Home | Current Version | Previous Version | Text Only | Print | Product List | Glossary Off
Versions: 1 2 3 4 5 6 7 8 9 10 11 12 13 14 15 16 17 18 19 20 21 22 23 24 25 26 27 28 29 30 31 32 33 34 35 36 37 38 39 40 41 42 43 44 45 46 47 48 49 50

000
ASUS43 KDMX 232306
RWRIA

WEATHER ROUNDUP FOR IOWA
NATIONAL WEATHER SERVICE DES MOINES IA
600 PM CDT MON OCT 23 2017

NOTE: "FAIR" INDICATES FEW OR NO CLOUDS BELOW 12,000 FEET WITH NO
SIGNIFICANT WEATHER AND/OR OBSTRUCTIONS TO VISIBILITY.

* - THESE STATIONS ARE NOT NWS STATIONS...THUS NOT UNDER NWS
QUALITY CONTROL.  THEY ALSO DO NOT REPORT WEATHER SUCH
AS PRECIPITATION OR FOG.

IAZ001>003-012>014-020>022-031>034-043>046-240000-
   NORTHWEST IOWA

CITY           SKY/WX    TMP DP  RH WIND       PRES   REMARKS
CARROLL *      CLOUDY    52  36  54 NW24G41   29.98R
CHEROKEE *     MOCLDY    51  32  48 NW15G23   30.01S
DENISON *      CLOUDY    52  34  50 N22G35    30.03R
LE MARS *      MOCLDY    54  28  37 NW15G24   30.03F
ORANGE CITY *  CLOUDY    54  32  43 NW14G20   30.02S
SHELDON *      CLOUDY    52  28  40 NW10G23   29.99S
SIOUX CITY     MOCLDY    55  29  36 NW25G36   30.04R
SPENCER        CLOUDY    52  31  44 NW21G28   29.97F
STORM LAKE *   CLOUDY    50  32  50 NW18G26   29.99S
$$

IAZ055>058-069>071-079>083-090>094-240000-
   SOUTHWEST IOWA

CITY           SKY/WX    TMP DP  RH WIND       PRES   REMARKS
ATLANTIC *     CLOUDY    55  36  47 NW21G33   30.00R
AUDUBON *      CLOUDY    54  36  50 NW24G32   30.00R
CLARINDA *     CLOUDY    59  34  38 N24G35    30.02R
COUNCIL BLFS * PTCLDY    55  34  44 NW18G31   30.03R
CRESTON *      CLOUDY    55  34  44 NW23G37   29.97R
HARLAN  *      CLOUDY    55  34  44 N26G37    30.04R
LAMONI         CLOUDY    57  35  43 NW24G38   29.94R
RED OAK *      CLOUDY    57  36  44 N20G30    30.01R
SHENANDOAH *   CLOUDY    59  32  36 NW21G35   30.02R
$$

IAZ047>049-059>061-072>074-084-240000-
   CENTRAL IOWA

CITY           SKY/WX    TMP DP  RH WIND       PRES   REMARKS
AMES           CLOUDY    52  40  63 NW25G36   29.91R
ANKENY *       CLOUDY    55  36  47 NW18G36   29.91R
BOONE *        CLOUDY    50  39  66 NW20G33   29.91R
CHARITON *     MOCLDY    55  36  47 NW26G36   29.89R
DES MOINES     MOCLDY    55  35  47 NW20      29.90R
GRINNELL*      PTCLDY    54  37  52 NW23G35   29.86R
KNOXVILLE *    MOCLDY    55  34  44 NW23G38   29.86S
MARSHALLTOWN   CLOUDY    53  37  54 NW23G32   29.86R
NEWTON *       MOCLDY    55  36  47 NW20G33   29.87R
PELLA *        CLEAR     56  36  46 NW22G30   29.87R
PERRY *        CLOUDY    53  34  48 NW15G25   29.94S
$$

IAZ004>006-015-016-023>025-035-036-240000-
   NORTH CENTRAL IOWA

CITY           SKY/WX    TMP DP  RH WIND       PRES   REMARKS
ALGONA *       CLOUDY    50  36  57 NW16G24   29.93R
CLARION *      CLOUDY    48  39  71 NW25G36   29.91R
ESTHERVILLE    CLOUDY    49  33  54 NW17G26   29.93F
FORT DODGE *   CLOUDY    50  35  56 NW15G29   29.94R
MASON CITY     CLOUDY    48  39  71 NW26G35   29.88R
FOREST CITY *  CLOUDY    48  36  61 NW18G33   29.88S
WEBSTER CITY * CLOUDY    50  37  62 NW25G37   29.91R
IOWA FALLS *   CLOUDY    52  40  63 NW25G37   29.89R
$$

IAZ007>011-017>019-026>030-037>042-050>054-066-240000-
   NORTHEAST IOWA

CITY           SKY/WX    TMP DP  RH WIND       PRES   REMARKS
CEDAR RAPIDS   CLOUDY    57  39  51 NW17G25   29.77S
CHARLES CITY * CLOUDY    50  39  66 NW21G32   29.83R
CLINTON *      LGT RAIN  52  48  86 NW13      29.75R
DECORAH *      CLOUDY    52  39  62 NW12G28   29.76R
DUBUQUE        CLOUDY    50  45  83 NW6       29.74F
MONTICELLO *   MOCLDY    52  46  82 W3        29.75F
OELWEIN *      CLOUDY    54  39  58 NW23G32   29.79S
WATERLOO       CLOUDY    52  37  56 NW20G32   29.81R
$$

IAZ064-065-067-068-078-240000-
   EAST CENTRAL IOWA

CITY           SKY/WX    TMP DP  RH WIND       PRES   REMARKS
DAVENPORT      CLOUDY    53  47  79 W10G20    29.78R
IOWA CITY      CLOUDY    57  46  66 W6        29.79F
MUSCATINE *    CLOUDY    55  45  67 NW8       29.78F
QUAD CITIES    CLOUDY    55  47  74 W14       29.76R
$$

IAZ062-063-075>077-085>089-095>099-240000-
   SOUTHEAST IOWA

CITY           SKY/WX    TMP DP  RH WIND       PRES   REMARKS
BURLINGTON     PTCLDY    57  45  64 NW8G17    29.79F
FAIRFIELD *    PTCLDY    59  39  47 NW13G22   29.80S
FORT MADISON * PTCLDY    57  46  67 NW9       29.81F
KEOKUK *       MOCLDY    57  45  62 W8        29.80F
OSKALOOSA *    MOCLDY    57  40  52 NW20G30   29.85R
OTTUMWA        PTCLDY    58  38  47 NW22G36   29.84R
WASHINGTON *   CLOUDY    57  46  67 W8        29.79F
$$

ABBREVIATIONS USED IN REMARKS
   TC - TEMPERATURES IN CELSIUS
  WCI - WIND CHILL INDEX
   HX - HEAT INDEX
  VSB - VISIBILITY
$$





USA.gov is the U.S. government's official web portal to all federal, state and local government web resources and services.